| time (UTC) | temp C | wind direction | speed KPH | gust KPH | rain 1hr cm | rain 24hr cm | rain mn cm | humidity % | barometer mb |
| 20260905201559 | 23 | 304 | 0.0 | 3.2 | 0.00 | 0.00 | 0.00 | 70 | 1002.2 |
| 20260905194557 | 24 | 332 | 1.6 | 8.0 | 0.00 | 0.00 | 0.00 | 66 | 1002.2 |
| 20260905193057 | 25 | 290 | 1.6 | 14.5 | 0.00 | 0.00 | 0.00 | 65 | 1002.0 |
| 20260905191602 | 25 | 312 | 3.2 | 12.9 | 0.00 | 0.00 | 0.00 | 64 | 1002.0 |
| 20260905190051 | 24 | 351 | 1.6 | 14.5 | 0.00 | 0.00 | 0.00 | 67 | 1002.1 |
| 20260905184556 | 24 | 343 | 4.8 | 14.5 | 0.00 | 0.00 | 0.00 | 66 | 1002.0 |
| 20260905183042 | 23 | 258 | 1.6 | 9.7 | 0.00 | 0.00 | 0.00 | 67 | 1002.3 |
| 20260905181542 | 23 | 338 | 3.2 | 14.5 | 0.00 | 0.00 | 0.00 | 67 | 1002.3 |
| 20260905180046 | 23 | 287 | 1.6 | 11.3 | 0.00 | 0.00 | 0.00 | 66 | 1002.3 |
| 20260905174539 | 23 | 240 | 1.6 | 11.3 | 0.00 | 0.00 | 0.00 | 70 | 1002.4 |
| 20260905173052 | 23 | 336 | 4.8 | 16.1 | 0.00 | 0.00 | 0.00 | 68 | 1002.6 |
| 20260905171531 | 23 | 248 | 1.6 | 12.9 | 0.00 | 0.00 | 0.00 | 70 | 1002.6 |
| 20260905170030 | 22 | 340 | 3.2 | 12.9 | 0.00 | 0.00 | 0.00 | 70 | 1002.7 |
| 20260905164531 | 22 | 20 | 3.2 | 8.0 | 0.00 | 0.00 | 0.00 | 72 | 1002.4 |
| 20260905163027 | 22 | 304 | 6.4 | 17.7 | 0.00 | 0.00 | 0.00 | 73 | 1002.6 |
| 20260905161523 | 22 | 34 | 1.6 | 6.4 | 0.00 | 0.00 | 0.00 | 75 | 1002.5 |
| 20260905160023 | 22 | 308 | 1.6 | 6.4 | 0.00 | 0.00 | 0.00 | 75 | 1002.6 |
| 20260905154520 | 21 | 360 | 0.0 | 8.0 | 0.00 | 0.00 | 0.00 | 76 | 1002.6 |
| 20260905153021 | 21 | 360 | 3.2 | 8.0 | 0.00 | 0.00 | 0.00 | 76 | 1002.8 |
| 20260905151521 | 21 | 360 | 1.6 | 12.9 | 0.00 | 0.00 | 0.00 | 78 | 1002.8 |
| 20260905150015 | 20 | 360 | 1.6 | 9.7 | 0.00 | 0.00 | 0.00 | 78 | 1002.8 |
| 20260905144521 | 20 | 360 | 0.0 | 6.4 | 0.00 | 0.00 | 0.00 | 81 | 1002.9 |
| 20260905143011 | 20 | 360 | 1.6 | 9.7 | 0.00 | 0.00 | 0.00 | 81 | 1002.7 |
| 20260905141511 | 20 | 360 | 0.0 | 8.0 | 0.00 | 0.00 | 0.00 | 82 | 1002.6 |
| 20260905140007 | 19 | 360 | 1.6 | 16.1 | 0.00 | 0.00 | 0.00 | 83 | 1002.7 |
| 20260905134506 | 19 | 360 | 1.6 | 12.9 | 0.00 | 0.00 | 0.00 | 84 | 1002.7 |
| 20260905133003 | 18 | 360 | 1.6 | 9.7 | 0.00 | 0.00 | 0.00 | 86 | 1002.9 |
| 20260905131501 | 18 | 360 | 0.0 | 4.8 | 0.00 | 0.00 | 0.00 | 87 | 1002.9 |
| 20260905130101 | 18 | 360 | 0.0 | 4.8 | 0.00 | 0.00 | 0.00 | 88 | 1003.0 |
| 20260905124600 | 17 | 360 | 0.0 | 3.2 | 0.00 | 0.00 | 0.00 | 89 | 1003.1 |
| 20260905123107 | 17 | 360 | 0.0 | 4.8 | 0.00 | 0.00 | 0.00 | 90 | 1003.2 |
| 20260905121558 | 17 | 360 | 0.0 | 4.8 | 0.00 | 0.00 | 0.00 | 90 | 1003.2 |
| 20260905120100 | 16 | 360 | 0.0 | 4.8 | 0.00 | 0.00 | 0.00 | 91 | 1002.9 |
| 20260905114602 | 16 | 360 | 0.0 | 4.8 | 0.00 | 0.03 | 0.00 | 92 | 1002.8 |
| 20260905113056 | 16 | 360 | 0.0 | 4.8 | 0.00 | 0.03 | 0.00 | 92 | 1002.6 |
| 20260905111556 | 16 | 360 | 1.6 | 4.8 | 0.00 | 0.03 | 0.00 | 93 | 1002.7 |
| 20260905110055 | 15 | 360 | 0.0 | 4.8 | 0.00 | 0.03 | 0.00 | 93 | 1002.5 |
| 20260905104555 | 15 | 360 | 0.0 | 0.0 | 0.00 | 0.03 | 0.00 | 92 | 1002.4 |
| 20260905103057 | 16 | 360 | 0.0 | 1.6 | 0.00 | 0.03 | 0.00 | 91 | 1002.3 |
| 20260905101559 | 16 | 360 | 0.0 | 0.0 | 0.00 | 0.03 | 0.00 | 90 | 1002.2 |
| 20260905100117 | 16 | 360 | 0.0 | 1.6 | 0.00 | 0.03 | 0.00 | 89 | 1002.2 |
| 20260905094550 | 16 | 360 | 0.0 | 4.8 | 0.00 | 0.05 | 0.00 | 89 | 1002.1 |
| 20260905093046 | 16 | 360 | 0.0 | 3.2 | 0.00 | 0.05 | 0.00 | 89 | 1001.9 |
| 20260905091556 | 16 | 360 | 0.0 | 3.2 | 0.00 | 0.05 | 0.00 | 89 | 1001.8 |
| 20260905090044 | 16 | 360 | 0.0 | 1.6 | 0.00 | 0.05 | 0.00 | 89 | 1001.9 |
| 20260905084550 | 16 | 360 | 0.0 | 3.2 | 0.00 | 0.33 | 0.00 | 88 | 1001.9 |
| 20260905083103 | 17 | 360 | 1.6 | 6.4 | 0.00 | 0.33 | 0.00 | 88 | 1002.0 |
| 20260905081541 | 17 | 360 | 1.6 | 8.0 | 0.00 | 0.33 | 0.00 | 88 | 1002.0 |
| 20260905080041 | 17 | 360 | 1.6 | 4.8 | 0.00 | 0.33 | 0.00 | 88 | 1002.0 |
| 20260905074541 | 16 | 360 | 1.6 | 4.8 | 0.00 | 0.81 | 0.00 | 88 | 1002.0 |
| 20260905073040 | 17 | 360 | 0.0 | 6.4 | 0.00 | 0.81 | 0.00 | 89 | 1002.1 |
| 20260905071536 | 17 | 360 | 0.0 | 1.6 | 0.00 | 0.81 | 0.00 | 88 | 1002.1 |
| 20260905070034 | 17 | 360 | 0.0 | 3.2 | 0.00 | 0.81 | 0.00 | 87 | 1002.2 |
| 20260905064533 | 17 | 360 | 0.0 | 4.8 | 0.00 | 0.81 | 0.00 | 85 | 1002.4 |
| 20260905063033 | 17 | 360 | 0.0 | 3.2 | 0.00 | 0.81 | 0.00 | 85 | 1002.3 |
| 20260905061530 | 17 | 360 | 0.0 | 3.2 | 0.00 | 0.81 | 0.00 | 85 | 1002.3 |
| 20260905060040 | 17 | 360 | 0.0 | 1.6 | 0.00 | 0.81 | 0.00 | 85 | 1002.7 |
| 20260905054556 | 17 | 360 | 0.0 | 3.2 | 0.00 | 0.81 | 0.00 | 85 | 1002.9 |
| 20260905053026 | 17 | 360 | 0.0 | 3.2 | 0.00 | 0.81 | 0.00 | 86 | 1002.9 |
| 20260905051523 | 18 | 360 | 0.0 | 1.6 | 0.00 | 0.81 | 0.00 | 84 | 1003.0 |
| 20260905050022 | 18 | 360 | 0.0 | 1.6 | 0.00 | 0.81 | 0.00 | 83 | 1003.2 |
| 20260905044522 | 19 | 360 | 0.0 | 4.8 | 0.00 | 0.81 | 0.00 | 80 | 1003.3 |
| 20260905043021 | 19 | 360 | 1.6 | 6.4 | 0.00 | 0.81 | 0.00 | 80 | 1003.3 |
| 20260905041520 | 18 | 360 | 0.0 | 4.8 | 0.00 | 0.81 | 0.00 | 82 | 1003.3 |
| 20260905040015 | 18 | 360 | 1.6 | 4.8 | 0.00 | 0.81 | 0.00 | 86 | 1003.4 |
| 20260905034515 | 18 | 360 | 0.0 | 0.0 | 0.00 | 0.81 | 0.81 | 90 | 1003.4 |
| 20260905033016 | 18 | 360 | 0.0 | 0.0 | 0.00 | 0.81 | 0.81 | 90 | 1003.3 |
| 20260905031513 | 18 | 360 | 0.0 | 1.6 | 0.00 | 0.81 | 0.81 | 89 | 1003.2 |
| 20260905030014 | 18 | 360 | 0.0 | 0.0 | 0.00 | 0.81 | 0.81 | 91 | 1003.3 |
| 20260905024514 | 18 | 360 | 0.0 | 0.0 | 0.00 | 0.81 | 0.81 | 92 | 1003.2 |
| 20260905023008 | 18 | 360 | 0.0 | 0.0 | 0.00 | 0.81 | 0.81 | 91 | 1003.1 |
| 20260905021507 | 19 | 360 | 0.0 | 0.0 | 0.00 | 0.81 | 0.81 | 88 | 1003.1 |
| 20260905020005 | 19 | 360 | 0.0 | 1.6 | 0.00 | 0.81 | 0.81 | 87 | 1003.1 |
| 20260905014503 | 19 | 360 | 0.0 | 0.0 | 0.00 | 0.81 | 0.81 | 85 | 1003.1 |
| 20260905013001 | 20 | 360 | 0.0 | 0.0 | 0.00 | 0.81 | 0.81 | 86 | 1003.2 |
| 20260905011500 | 20 | 360 | 0.0 | 0.0 | 0.00 | 0.81 | 0.81 | 89 | 1003.2 |
| 20260905010108 | 20 | 360 | 0.0 | 0.0 | 0.00 | 0.81 | 0.81 | 87 | 1003.1 |
| 20260905004600 | 21 | 360 | 0.0 | 1.6 | 0.00 | 0.81 | 0.81 | 86 | 1003.3 |
| 20260905003059 | 21 | 360 | 0.0 | 0.0 | 0.00 | 0.81 | 0.81 | 85 | 1003.1 |
| 20260905001559 | 21 | 360 | 0.0 | 0.0 | 0.00 | 0.81 | 0.81 | 83 | 1003.0 |
| 20260905000059 | 21 | 360 | 0.0 | 1.6 | 0.00 | 0.81 | 0.81 | 83 | 1002.9 |
| 20260904234558 | 21 | 360 | 0.0 | 1.6 | 0.00 | 0.81 | 0.81 | 82 | 1002.7 |
| 20260904233105 | 22 | 311 | 0.0 | 0.0 | 0.00 | 0.81 | 0.81 | 78 | 1002.6 |
| 20260904231606 | 23 | 311 | 0.0 | 0.0 | 0.00 | 0.81 | 0.81 | 77 | 1002.5 |
| 20260904230057 | 23 | 311 | 0.0 | 0.0 | 0.00 | 0.81 | 0.81 | 75 | 1002.6 |
| 20260904224557 | 25 | 311 | 0.0 | 0.0 | 0.00 | 0.81 | 0.81 | 73 | 1002.6 |
| 20260904223058 | 26 | 311 | 0.0 | 1.6 | 0.00 | 0.81 | 0.81 | 69 | 1002.6 |
| 20260904221604 | 26 | 311 | 0.0 | 1.6 | 0.00 | 0.81 | 0.81 | 67 | 1002.5 |
| 20260904220100 | 27 | 310 | 0.0 | 4.8 | 0.00 | 0.81 | 0.81 | 65 | 1002.4 |
| 20260904214556 | 27 | 263 | 0.0 | 4.8 | 0.00 | 0.81 | 0.81 | 63 | 1002.4 |
| 20260904213053 | 27 | 261 | 1.6 | 6.4 | 0.00 | 0.81 | 0.81 | 59 | 1002.5 |
| 20260904211553 | 28 | 294 | 0.0 | 4.8 | 0.00 | 0.81 | 0.81 | 59 | 1002.5 |
| 20260904210055 | 28 | 276 | 0.0 | 4.8 | 0.00 | 0.81 | 0.81 | 60 | 1002.6 |
| 20260904204551 | 27 | 273 | 1.6 | 6.4 | 0.00 | 0.84 | 0.81 | 61 | 1002.5 |
| 20260904203056 | 27 | 287 | 0.0 | 6.4 | 0.00 | 0.84 | 0.81 | 65 | 1002.5 |